The Dalles, WA

6:15 AM PDT on September 19, 2019 (GMT -0700)
Columbia Gorge Regional-The Dalles

Weather History for KDLS - May, 2019

Change the Weather History Date:

Friday, May 3, 2019

  Actual Average Record
Temperature  
Mean Temperature 60 °F -  
Max Temperature 77 °F 72 °F 92 °F (1966)
Min Temperature 46 °F 45 °F 32 °F (2007)
Degree Days  
Heating Degree Days 6    
Growing Degree Days 10 (Base 50)    
Moisture  
Dew Point 39 °F    
Average Humidity 47    
Maximum Humidity 66    
Minimum Humidity 30    
Precipitation  
Precipitation 0.00 in - - ()
Sea Level Pressure  
Sea Level Pressure 29.99 in    
Wind  
Wind Speed 10 mph (NW)    
Max Wind Speed 20 mph    
Max Gust Speed 28 mph    
Visibility 10 miles    
Events      
Averages and records for this station are not official NWS values.
T = Trace of Precipitation, MM = Missing Value Source: NWS Daily Summary

Daily Weather History Graph

Daily Weather History Graph

Search for Another Location

Airport or City:

Astronomy

May. 03, 2019 Rise Set
Actual Time 5:49 AM PDT 8:14 PM PDT
Civil Twilight 5:16 AM PDT 8:47 PM PDT
Nautical Twilight 4:35 AM PDT 9:28 PM PDT
Astronomical Twilight 3:48 AM PDT 10:15 PM PDT
Moon 5:42 AM PDT (5/3) 7:00 PM PDT (5/3)
Length of Visible Light 15h 30m
Length of Day
14h 24m
Waning Crescent, 1% of the Moon is Illuminated
May 3
Waning Crescent
May 4
New
May 11
First Quarter
May 18
Full
May 26
Last Quarter

Hourly Weather History & Observations

Time (PDT) Temp. Dew Point Humidity Pressure Visibility Wind Dir Wind Speed Gust Speed Precip Events Conditions
12:53 AM 54.0 °F 37.9 °F 55% 30.06 in 10.0 mi NW 8.1 mph - N/A   Clear
1:53 AM 52.0 °F 37.9 °F 59% 30.06 in 10.0 mi NW 6.9 mph - N/A   Clear
2:53 AM 50.0 °F 37.9 °F 63% 30.05 in 10.0 mi Calm Calm - N/A   Clear
3:53 AM 46.9 °F 36.0 °F 66% 30.06 in 10.0 mi SW 4.6 mph - N/A   Clear
4:53 AM 46.9 °F 36.0 °F 66% 30.06 in 10.0 mi WSW 8.1 mph - N/A   Clear
5:53 AM 48.0 °F 36.0 °F 63% 30.05 in 10.0 mi Variable 3.5 mph - N/A   Clear
6:53 AM 48.9 °F 37.9 °F 66% 30.05 in 10.0 mi SW 9.2 mph - N/A   Clear
7:53 AM 51.1 °F 37.9 °F 61% 30.06 in 10.0 mi Variable 3.5 mph 17.3 mph N/A   Clear
8:53 AM 55.0 °F 37.9 °F 53% 30.06 in 10.0 mi SSE 3.5 mph - N/A   Clear
9:37 AM 60.1 °F 39.0 °F 46% 30.04 in 1.8 mi NNW 11.5 mph - N/A   Haze
9:51 AM 60.8 °F 39.2 °F 45% 30.04 in 10.0 mi NNW 18.4 mph 25.3 mph N/A   Clear
9:53 AM 60.1 °F 39.0 °F 46% 30.04 in 10.0 mi NNW 13.8 mph 25.3 mph N/A   Clear
10:53 AM 64.0 °F 39.9 °F 41% 30.03 in 10.0 mi NW 13.8 mph 25.3 mph N/A   Clear
11:53 AM 66.0 °F 39.0 °F 37% 30.00 in 10.0 mi NW 15.0 mph 25.3 mph N/A   Clear
12:53 PM 69.1 °F 39.0 °F 33% 29.97 in - NNW 18.4 mph 26.5 mph N/A   Clear
1:53 PM 72.0 °F 39.0 °F 30% 29.96 in 10.0 mi NNW 15.0 mph - N/A   Clear
2:53 PM 73.9 °F 41.0 °F 30% 29.93 in 10.0 mi NNW 17.3 mph 24.2 mph N/A   Clear
3:53 PM 73.9 °F 41.0 °F 30% 29.92 in 10.0 mi NW 17.3 mph 27.6 mph N/A   Clear
4:53 PM 73.0 °F 42.1 °F 33% 29.91 in 10.0 mi NW 16.1 mph - N/A   Clear
5:53 PM 68.0 °F 41.0 °F 37% 29.91 in 10.0 mi NNW 19.6 mph 26.5 mph N/A   Clear
6:53 PM 66.9 °F 41.0 °F 39% 29.91 in 10.0 mi NNW 16.1 mph - N/A   Clear
7:53 PM 64.0 °F 41.0 °F 43% 29.91 in 10.0 mi NW 15.0 mph 23.0 mph N/A   Clear
8:53 PM 63.0 °F 41.0 °F 45% 29.91 in 10.0 mi NW 16.1 mph - N/A   Clear
10:53 PM 59.0 °F 39.9 °F 49% 29.93 in 10.0 mi NW 9.2 mph - N/A   Clear
11:53 PM 60.1 °F 37.9 °F 44% 29.93 in 10.0 mi NW 11.5 mph - N/A   Clear